AO-07 1 07530U 74089B 24235.72504575 -.00000035 00000-0 73801-4 0 9996 2 07530 101.9830 231.0053 0012017 319.0164 215.0357 12.53678370277616 UO-11 1 14781U 84021B 24235.44266036 .00004029 00000-0 45390-3 0 9992 2 14781 97.7108 202.7608 0007169 206.5498 153.5352 14.87147595158332 AO-27 1 22825U 93061C 24235.70471159 .00000411 00000-0 17518-3 0 9999 2 22825 98.7833 289.1579 0007450 240.5956 119.4483 14.30555588612392 FO-29 1 24278U 96046B 24235.73829322 .00000113 00000-0 15077-3 0 9998 2 24278 98.5793 161.6651 0350503 16.0569 345.1353 13.53202271383683 NOAA-15 1 25338U 98030A 24235.79474590 .00000566 00000-0 25157-3 0 9992 2 25338 98.5664 261.5245 0011319 126.7158 233.5064 14.26675136366932 GO-32 1 25397U 98043D 24235.77407588 .00000376 00000-0 18346-3 0 9993 2 25397 98.9281 203.5118 0001208 19.8945 340.2280 14.24098988357111 ISS 1 25544U 98067A 24235.67560383 .00033288 00000-0 57656-3 0 9990 2 25544 51.6399 345.9258 0004816 238.7404 121.3114 15.50586304468860 NO-44 1 26931U 01043C 24235.52101782 .00000763 00000-0 31907-3 0 9990 2 26931 67.0510 160.1731 0007756 270.8449 89.1764 14.31332174195447 SO-50 1 27607U 02058C 24235.59167323 .00004449 00000-0 60932-3 0 9993 2 27607 64.5569 17.3779 0025574 75.8394 284.5549 14.79439947166144 CO-55 1 27844U 03031E 24235.59211526 .00001121 00000-0 51306-3 0 9992 2 27844 98.6790 241.7038 0008789 317.9295 42.1208 14.23399385 97234 CO-57 1 27848U 03031J 24235.55274377 .00000943 00000-0 43941-3 0 9992 2 27848 98.6821 241.8718 0009022 335.6459 24.4292 14.22821022 97029 RS-22 1 27939U 03042A 24235.86140255 .00004101 00000-0 68591-3 0 9994 2 27939 98.2995 33.1597 0011430 205.3183 302.5448 14.70367999118071 NOAA-18 1 28654U 05018A 24235.82882896 .00000536 00000-0 30935-3 0 9993 2 28654 98.8714 312.2339 0013480 231.4142 128.5824 14.13295471992670 CO-58 1 28895U 05043F 24235.35901702 .00005384 00000-0 94069-3 0 9998 2 28895 98.2106 11.3300 0016058 145.8243 214.3999 14.68248803 4392 CO-65 1 32785U 08021C 24235.44716264 .00011484 00000-0 97821-3 0 9994 2 32785 97.7597 200.2825 0013484 104.9244 255.3472 14.97865320885390 AAUSAT2 1 32788U 08021F 24235.69434402 .00045820 00000-0 20064-2 0 9990 2 32788 97.5982 216.3214 0001169 342.8164 17.3031 15.21876117888529 CO-66 1 32791U 08021J 24235.63482905 .00019154 00000-0 13221-2 0 9997 2 32791 97.6959 206.5282 0008179 90.0269 270.1894 15.05794944886590 RS-30 1 32953U 08025A 24235.87046549 .00000039 00000-0 21087-3 0 9999 2 32953 82.5009 47.9972 0018885 321.4513 38.5218 12.43146114737411 PRISM 1 33493U 09002B 24235.41947371 .00047421 00000-0 19503-2 0 9993 2 33493 98.1983 288.9328 0010227 25.2412 334.9320 15.23951790849119 NOAA-19 1 33591U 09005A 24235.86060292 .00000517 00000-0 30111-3 0 9996 2 33591 99.0421 292.3500 0014835 104.0902 256.1920 14.13088690801044 SRMSAT 1 37841U 11058D 24235.87418128 .00000817 00000-0 30182-3 0 9996 2 37841 19.9717 113.4223 0011873 108.1372 339.6680 14.11177986664216 RS-40 1 38735U 12041C 24235.52205773 .00000053 00000-0 30946-3 0 9994 2 38735 82.4766 128.5382 0018460 73.8698 286.4412 12.42613784547416 ZACUBE-1 1 39417U 13066B 24235.68328574 .00011513 00000-0 11614-2 0 9995 2 39417 97.7387 190.2173 0047420 301.6321 58.0275 14.90413106581485 Delfi-N3xt 1 39428U 13066N 24235.77924507 .00013262 00000-0 16347-2 0 9996 2 39428 97.8333 152.4060 0096765 231.7336 127.5141 14.79712128576110 GOMX-1 1 39430U 13066Q 24235.73845131 .00005998 00000-0 98255-3 0 9996 2 39430 97.7220 106.0820 0139977 41.6995 319.4778 14.64739368572784 LO-74 1 39440U 13066AA 24235.60391989 .00011027 00000-0 12635-2 0 9997 2 39440 97.8152 177.8808 0070522 58.1039 302.7011 14.84282864579388 AO-73 1 39444U 13066AE 24235.77597523 .00014853 00000-0 13832-2 0 9991 2 39444 97.7247 193.6165 0044040 279.7068 79.9179 14.93633921580639 DTUSAT-2 1 40030U 14033W 24235.83574487 .00014884 00000-0 12045-2 0 9999 2 40030 98.0163 190.1130 0006849 311.0428 49.0202 14.99840881553199 EO-80 1 40032U 14033Y 24235.40217516 .00014022 00000-0 11349-2 0 9991 2 40032 98.0079 189.6673 0007605 285.6335 74.4048 14.99846718553113 XW-2C 1 40906U 15049H 24235.83118719 .00060392 00000-0 11369-2 0 9994 2 40906 97.4750 254.6099 0008889 77.4724 282.7520 15.48294320494766 XW-2D 1 40907U 15049J 24235.84849293 .00110562 00000-0 13695-2 0 9993 2 40907 97.4672 258.0197 0006554 76.4722 283.7264 15.59676249495056 LILACSAT-2 1 40908U 15049K 24235.83223763 .00017110 00000-0 62413-3 0 9999 2 40908 97.5244 245.0972 0014125 113.8179 246.4543 15.28129434493661 XW-2B 1 40911U 15049N 24235.78645654 .00104464 00000-0 13562-2 0 9993 2 40911 97.4649 257.9305 0006795 78.9285 281.2735 15.58448005494907 IO-86 1 40931U 15052B 24223.74146178 .00002522 00000-0 25333-3 0 9991 2 40931 6.0008 322.8958 0012485 137.4084 222.7013 14.77988566479544 ChubuSat-2 1 41338U 16012B 24235.70231750 .00011814 00000-0 71375-3 0 9991 2 41338 31.0014 322.3959 0011147 181.1909 178.8703 15.09415485467650 ChubuSat-3 1 41339U 16012C 24235.67326592 .00010090 00000-0 62078-3 0 9992 2 41339 31.0083 321.5111 0011136 185.3434 174.7086 15.08717224467626 Horyu-4 1 41340U 16012D 24235.37676692 .00024143 00000-0 11207-2 0 9991 2 41340 31.0008 263.5502 0008710 279.0005 80.9649 15.18832203468218 Lapan A3 1 41603U 16040E 24235.81705712 .00007178 00000-0 28166-3 0 9991 2 41603 97.1422 246.5475 0010667 216.7603 143.2906 15.25969246453386 Pratham 1 41783U 16059A 24235.58694168 .00002276 00000-0 42861-3 0 9998 2 41783 97.8355 251.8126 0032818 167.3422 192.8613 14.65145095422260 CAS-2T 1 41847U 16066G 24235.80657479 .00002203 00000-0 32918-3 0 9998 2 41847 98.4558 306.6102 0352215 336.8832 21.6836 14.41651938409094 CAS-4B 1 42759U 17034B 24235.84835142 .00032942 00000-0 10655-2 0 9992 2 42759 43.0164 209.0227 0010408 74.3604 285.8397 15.31430367397617 CAS-4A 1 42761U 17034D 24235.84442033 .00033138 00000-0 10662-2 0 9994 2 42761 43.0202 207.3473 0009788 88.6325 271.5650 15.31602531397623 Aalto 1 1 42775U 17036L 24235.62186710 .00743618 26239-3 13574-2 0 9995 2 42775 97.0842 267.1580 0005505 213.9498 146.1430 16.01415620399597 D-SAT 1 42794U 17036AF 24235.71551501 .00012132 00000-0 82035-3 0 9994 2 42794 97.4792 215.2184 0105035 282.2466 76.7013 15.02220365390735 TechnoSat 1 42829U 17042E 24235.75963357 .00007873 00000-0 68085-3 0 9995 2 42829 97.3864 53.1374 0011987 205.3130 154.7507 14.97383420387139 AO-91 1 43017U 17073E 24235.76044516 .00016960 00000-0 10082-2 0 9997 2 43017 97.5666 108.9258 0207277 71.0422 291.3137 14.95013200365601 TianYi 2 1 43155U 18008A 24234.59254070 .04500854 23237-5 22646-2 0 9992 2 43155 97.2016 291.3564 0011688 254.2963 105.7037 16.20572588365203 TianYi 6 1 43158U 18008D 24235.70552116 .00162144 00000-0 19465-2 0 9996 2 43158 97.2505 285.0007 0007617 194.0843 166.0203 15.60320902364798 S-Net D 1 43186U 18014G 24235.67169367 .00011039 00000-0 76720-3 0 9996 2 43186 97.5824 136.3611 0011730 133.8968 226.3229 15.05637554358508 S-Net B 1 43187U 18014H 24235.67430796 .00011124 00000-0 77310-3 0 9995 2 43187 97.5828 136.3181 0012564 130.4168 229.8157 15.05626898358503 S-Net A 1 43188U 18014J 24235.67278600 .00010961 00000-0 76164-3 0 9994 2 43188 97.5836 136.4347 0012488 130.8418 229.3894 15.05638137358507 S-Net C 1 43189U 18014K 24235.67638664 .00011245 00000-0 78108-3 0 9991 2 43189 97.5849 136.3994 0014271 125.2076 235.0489 15.05625929357057 Ten-Koh 1 43677U 18084G 24235.41066611 .00006692 00000-0 58931-3 0 9991 2 43677 98.0719 30.9446 0013929 154.2520 205.9397 14.96753637316626 PO-101 1 43678U 18084H 24235.84903000 .00004364 00000-0 39688-3 0 9993 2 43678 98.0794 35.8346 0009334 164.4061 195.7448 14.95735441316884 QO-100 1 43700U 18090A 24235.55999446 .00000136 00000-0 00000-0 0 9999 2 43700 0.0156 149.6686 0002758 43.9038 5.1951 1.00273360 21025 MinXSS-2 1 43758U 18099A 24235.43666382 .00022380 00000-0 13297-2 0 9997 2 43758 97.5486 296.8455 0017198 92.8520 267.4679 15.11175002312784 AO-95 1 43770U 18099N 24235.12881680 .00016108 00000-0 10644-2 0 9991 2 43770 97.5385 291.6100 0014518 135.4998 224.7399 15.07392416312490 RANGE-B 1 43772U 18099Q 24235.41653793 .00024962 00000-0 14379-2 0 9993 2 43772 97.5182 295.6314 0005497 52.5787 307.5944 15.12383004312720 RANGE-A 1 43773U 18099R 24235.55571771 .00010193 00000-0 75168-3 0 9999 2 43773 97.4962 286.6763 0014066 108.0957 252.1802 15.03402613312403 MOVE-II 1 43780U 18099Y 24235.42747234 .00041452 00000-0 19261-2 0 9995 2 43780 97.5151 297.9424 0007081 112.8760 247.3223 15.19842042312971 SNUSat 2 1 43782U 18099AA 24235.11724115 .00014920 00000-0 10129-2 0 9990 2 43782 97.5067 290.3862 0015346 80.2896 280.0064 15.06395940312493 SnugLite 1 43784U 18099AC 24235.14759983 .00014880 00000-0 97773-3 0 9992 2 43784 97.4899 289.7233 0006006 91.2531 268.9385 15.07687230312579 ITASat 1 1 43786U 18099AE 24235.42232902 .00012811 00000-0 88955-3 0 9996 2 43786 97.5049 290.8473 0018416 124.8477 235.4485 15.05549571312537 EAGLET 1 1 43790U 18099AJ 24235.60446742 .00008728 00000-0 63733-3 0 9999 2 43790 97.5230 291.5133 0015365 103.6542 256.6396 15.03806567312257 ESEO 1 43792U 18099AL 24235.71877483 .00004314 00000-0 34932-3 0 9999 2 43792 97.5145 288.0609 0011000 92.8562 267.3921 15.00188533312173 CSIM 1 43793U 18099AM 24235.42798023 .00038036 00000-0 17855-2 0 9992 2 43793 97.5243 299.7105 0012035 87.2370 273.0241 15.19468099312826 JO-97 1 43803U 18099AX 24235.11687421 .00019063 00000-0 11995-2 0 9997 2 43803 97.5137 292.3722 0010518 80.8147 279.4271 15.09197406312631 Suomi 100 1 43804U 18099AY 24235.60311437 .00015617 00000-0 10071-2 0 9998 2 43804 97.5209 292.6255 0016533 77.5143 282.7934 15.08272328312682 ISAT 1 43879U 18111D 24235.47958990 .00023753 00000-0 13508-2 0 9999 2 43879 97.6109 140.9328 0014954 126.2521 234.0094 15.12775358309439 UWE-4 1 43880U 18111E 24235.51202860 .00019132 00000-0 11253-2 0 9995 2 43880 97.6029 140.8093 0018012 135.8258 224.4414 15.11563916309446 Sparrow 1 43881U 18111F 24235.69169203 .00024998 00000-0 13998-2 0 9992 2 43881 97.6204 143.1778 0010943 158.2970 201.8726 15.13363921307532 Prox-1 1 44339U 19036A 24235.46802791 .00018456 00000-0 30539-2 0 9991 2 44339 23.9986 158.4563 0008073 16.9584 343.1180 14.68767499274997 SONATE 1 44400U 19038Q 24235.72284870 .00038875 00000-0 10320-2 0 9996 2 44400 97.7145 232.9702 0013471 217.3713 142.6595 15.38096523284291 Taurus 1 1 44530U 19059C 24235.83068103 .00015493 00000-0 34605-2 0 9997 2 44530 98.5816 357.8391 0011421 208.4633 151.5942 14.56813741261462 Duchifat 3 1 44854U 19089C 24235.70306764 .00031806 00000-0 14647-2 0 9993 2 44854 36.9571 4.3636 0006009 306.3994 53.6200 15.19448101258318 TO-108 1 44881U 19093C 24235.86608883 .00002880 00000-0 35108-3 0 9998 2 44881 97.8245 311.3631 0015666 103.9355 256.3603 14.84061549252938 FloripaSat 1 1 44885U 19093G 24235.80022376 .00011087 00000-0 11111-2 0 9999 2 44885 97.8384 317.9068 0013280 95.8772 264.3961 14.91466732253291 RS-44 1 44909U 19096E 24235.79974056 .00000012 00000-0 91600-5 0 9998 2 44909 82.5182 60.5018 0216498 255.4140 102.2865 12.79733133217536 BY70-2 1 45857U 20042B 24231.99670933 .21607952 28471-5 37049-2 0 9999 2 45857 97.8802 331.4374 0021194 281.9515 77.9402 16.32302805224274 UPMSat 2 1 46276U 20061E 24235.44619025 .00031324 00000-0 86169-3 0 9997 2 46276 97.2913 301.0309 0000942 177.3324 182.7926 15.37125999220343 AmicalSat 1 46287U 20061R 24235.70835672 .00072055 00000-0 15755-2 0 9994 2 46287 97.3416 303.2423 0000519 316.1029 44.0178 15.43903622219802 SALSAT 1 46495U 20068K 24235.84049053 .00014177 00000-0 77075-3 0 9992 2 46495 97.8221 196.8832 0015803 87.5880 272.7160 15.14494088214397 UVSQ-SAT 1 47438U 21006AB 24235.73025507 .00148454 00000-0 18059-2 0 9991 2 47438 97.3162 297.5724 0003644 297.1493 62.9392 15.60041255199069 SOMP 2b 1 47445U 21006AJ 24235.38723326 .00116355 00000-0 17471-2 0 9996 2 47445 97.3122 295.0820 0003742 333.9059 26.2005 15.54479092198902 IDEASSat 1 47458U 21006AX 24235.82952585 .00090655 00000-0 15896-2 0 9993 2 47458 97.3241 295.8231 0003907 336.5143 23.5929 15.50236559198885 CubeSX-Sirius-HSE 1 47951U 21022V 24235.86910385 .00037796 00000-0 13137-2 0 9998 2 47951 97.4498 134.1938 0010245 256.8456 103.1641 15.29587125188756 CubeSX-HSE 1 47952U 21022W 24235.81722382 .00041464 00000-0 14327-2 0 9991 2 47952 97.4499 134.2468 0010197 255.6079 104.4030 15.29758892188758 KSU-Cubesat 1 47954U 21022Y 24235.72516241 .00051524 00000-0 15739-2 0 9994 2 47954 97.4508 135.8214 0008740 245.5842 114.4488 15.33683389188564 GRBAlpha 1 47959U 21022AD 24235.84295301 .00039318 00000-0 13557-2 0 9996 2 47959 97.4500 134.4333 0009995 255.5000 104.5132 15.29841413187584 Orbicraft-Zorkiy 1 47960U 21022AE 24235.80554954 .00044816 00000-0 14256-2 0 9992 2 47960 97.4543 135.9391 0008892 249.3270 110.7019 15.32424002188341 STECCO 1 47962U 21022AG 24228.02305010 .17567430 26699-5 34381-3 0 9996 2 47962 97.4265 141.9998 0011844 218.2455 141.8009 16.46434050187393 TUBIN 1 48900U 21059X 24235.83246292 .00031053 00000-0 96668-3 0 9990 2 48900 97.6544 22.5701 0006417 208.5933 151.4958 15.33217150175120 LEDSAT 1 49069U 21073D 24235.73451410 .00032809 00000-0 11908-2 0 9995 2 49069 97.4324 306.5348 0018228 51.9737 308.3144 15.28091585166607 CUTE 1 49263U 21088D 24235.24065331 .00036224 00000-0 15259-2 0 9994 2 49263 97.4909 300.9197 0013421 204.3507 155.7097 15.23172443159680 TeikyoSat 4 1 49396U 21102B 24235.68327216 .00005385 00000-0 38380-3 0 9994 2 49396 97.4530 278.3644 0014194 53.4653 306.7878 15.04902866152750 Z-Sat 1 49399U 21102E 24235.85597490 .00008937 00000-0 56030-3 0 9997 2 49399 97.4258 280.2570 0020638 33.7480 326.5059 15.09379610153043 KOSEN 1 1 49402U 21102H 24235.55674730 .00012607 00000-0 71818-3 0 9992 2 49402 97.4176 281.6601 0018413 17.2017 342.9835 15.12800111153175 HO-113 1 50466U 21131B 24235.84300545 .00001770 00000-0 57781-3 0 9990 2 50466 98.5267 320.6037 0003076 291.5043 68.5817 14.39849127139591 IRIS-A 1 51044U 22002BN 24235.68953596 .00037446 00000-0 10855-2 0 9992 2 51044 97.3785 302.1018 0006600 153.6416 206.5165 15.35431060144617 OreSat0 1 52017U 22026K 24235.58037089 .00238519 00000-0 18392-2 0 9996 2 52017 97.4858 253.5545 0002617 334.7499 25.3635 15.71239507136062 Planetum 1 1 52738U 22057G 24235.84564340 .00102299 00000-0 17999-2 0 9991 2 52738 97.5714 4.7751 0006119 266.6372 93.4178 15.50082437124861 Foresail-1 1 52766U 22057AL 24235.61231995 .00039590 00000-0 11332-2 0 9992 2 52766 97.5893 2.8691 0008817 253.8882 106.1391 15.35800801124633 SNUGLITE 2 1 52899U 22065F 24235.62490417 .00003779 00000-0 77581-3 0 9994 2 52899 98.1291 15.5283 0006809 310.9037 49.1573 14.61212223113968 IO-117 1 53106U 22080B 24228.11242500 -.00000003 00000-0 00000-0 0 9994 2 53106 70.1424 172.0499 0007747 94.1050 266.0495 6.42557430 49057 SelfieSat 1 53951U 22057BC 24235.86579997 .00643111 00000-0 25209-2 0 9991 2 53951 97.5638 10.8138 0011032 273.4187 86.5820 15.85333236125223 FO-118 1 54684U 22167C 24235.86833626 .00059566 00000-0 17109-2 0 9994 2 54684 97.6125 22.5324 0009913 269.1230 90.8878 15.35578030 94518 SSS-2B 1 56184U 23054G 24235.84150709 .00078482 00000-0 14789-2 0 9998 2 56184 97.3572 134.6582 0001788 301.2307 58.8768 15.48229396 76428 CIRBE 1 56188U 23054L 24235.72264828 .00233208 00000-0 19456-2 0 9992 2 56188 97.3467 137.9145 0004186 152.0257 208.1231 15.69344673 76656 INSPIRE-Sat 7 1 56211U 23054AK 24235.68922502 .00330486 00000-0 20673-2 0 9993 2 56211 97.3466 139.5200 0006245 162.1774 197.9712 15.75886219 76749 RoseyCubesat 1 1 56212U 23054AL 24235.72289488 .00900546 36277-3 23180-2 0 9992 2 56212 97.3435 141.2080 0009029 164.1694 195.9865 15.95193684 76856 SO-120 1 56992U 23084BU 24235.80697514 .00067791 00000-0 20410-2 0 9993 2 56992 97.5362 356.1442 0010447 154.2953 205.8811 15.34048208 66377 MRC-100 1 56993U 23084BV 24235.86269730 .00080910 00000-0 21921-2 0 9991 2 56993 97.5356 356.8619 0009167 154.5880 205.5817 15.37311026 66437 UmKA 1 (RS40S) 1 57172U 23091G 24235.88266961 .00011239 00000-0 71801-3 0 9995 2 57172 97.6059 287.2806 0015080 251.3353 108.6238 15.08719318 63548 CubeBel-2 (EU11S) 1 57175U 23091K 24235.86221163 .00014221 00000-0 88177-3 0 9999 2 57175 97.6057 287.2959 0013218 263.2438 96.7287 15.09778013 63544 VERONIKA 1 58261U 23174F 24235.83091542 .00036197 00000-0 14546-2 0 9995 2 58261 97.4552 310.1312 0010730 12.8106 347.3402 15.24790485 43854 KAFASAT 1 58317U 23174BP 24235.81533188 .00048742 00000-0 17137-2 0 9990 2 58317 97.4498 311.0133 0009115 345.1152 14.9819 15.29161166 43924 ENSO 1 58470U 23185J 24235.81959659 .00032072 00000-0 12290-2 0 9991 2 58470 97.4202 301.9468 0011962 49.8635 310.3650 15.26392291 40298 EIRSAT-1 1 58472U 23185L 24235.82728782 .00033871 00000-0 12613-2 0 9992 2 58472 97.4196 302.0634 0011381 50.6840 309.5406 15.27336213 40306 SO-121 1 58567U 23174CY 24235.71796480 .00130168 00000-0 31457-2 0 9997 2 58567 97.4460 312.0604 0008275 336.7231 23.3639 15.40623670 43980 SONATE-2 1 59112U 24043Q 24235.61572259 .00021856 00000-0 99162-3 0 9996 2 59112 97.4856 358.8446 0015007 64.5885 295.6901 15.20726913 25898 MESAT1 1 60209U 24125G 24235.85801082 .00022172 00000-0 99816-3 0 9999 2 60209 97.3168 87.2612 0027679 90.9738 269.4669 15.20739672 7546 GRBBeta 1 60237U 24128C 24235.74523053 .00009087 00000-0 79116-3 0 9991 2 60237 61.9965 9.8493 0013617 319.3637 40.6434 14.97434557 6566 ROBUSTA-3A 1 60243U 24128J 24235.64301292 .00014146 00000-0 12491-2 0 9990 2 60243 61.9938 10.4394 0014153 294.1946 65.7663 14.96550334 6552 CatSat 1 60246U 24125J 24235.81247509 .00014943 00000-0 66826-3 0 9996 2 60246 97.2986 88.4715 0053086 44.4232 316.1242 15.20109187 5654 /EX